Regional Weather Roundup
Issued by NWS

Home | Current Version | Previous Version | Graphics & Text | Print | Product List | Glossary On
Versions: 1 2 3 4 5 6 7 8 9 10 11 12 13 14 15 16 17 18 19 20 21 22 23 24 25 26 27 28 29 30 31 32 33 34 35 36 37 38 39 40 41 42 43 44 45 46 47 48 49 50
421
ASUS43 KFSD 110510
RWRSD

WEATHER ROUNDUP FOR SOUTH DAKOTA
NATIONAL WEATHER SERVICE SIOUX FALLS SD
1100 PM CST WED FEB 10 2016

NOTE: "FAIR" INDICATES FEW OR NO CLOUDS BELOW 12,000 FEET WITH NO
SIGNIFICANT WEATHER AND/OR OBSTRUCTIONS TO VISIBILITY.


SDZ001>005-009-010-012>017-110600-
NORTHWEST AND NORTH CENTRAL SOUTH DAKOTA

CITY           SKY/WX    TMP DP  RH WIND       PRES   REMARKS
BUFFALO          N/A     32  28  85 CALM      30.03F
FAITH            N/A     29  23  78 NE7       30.14S WCI  22
MOBRIDGE       CLOUDY    21  15  78 NE6       30.18R WCI  13
$$

SDZ012>016-024>037-041>051-057-063-072>074-110600-
SOUTHWEST AND SOUTH CENTRAL SOUTH DAKOTA

CITY           SKY/WX    TMP DP  RH WIND       PRES   REMARKS
RAPID CTY ARPT CLOUDY    29  27  92 E3        30.14R
PIERRE         PTCLDY    22  19  89 CALM      30.19R
CUSTER         CLEAR     35  20  54 W12G21    30.08S WCI  27
ELLSWORTH AFB  PTCLDY    28  27  96 CALM      30.12R
PHILIP         CLOUDY    29  25  85 S7        30.18R WCI  22
PINE RIDGE     CLEAR     28  25  88 E7        30.12R WCI  21
SPEARFISH        N/A     28  25  86 S6        30.10F WCI  22
WINNER         CLOUDY    28  22  78 N5        30.17R WCI  23
$$

SDZ004>011-016>023-039-040-110600-
NORTHEAST SOUTH DAKOTA

CITY           SKY/WX    TMP DP  RH WIND       PRES   REMARKS
ABERDEEN       CLOUDY    13   7  77 NE6       30.27R WCI   4
WATERTOWN      CLOUDY    11   4  73 E6        30.18S WCI   1
BROOKINGS      FLURRIES  11   5  77 E9        30.19R WCI  -2
SISSETON         N/A     11   5  77 NE7       30.26R WCI   0
$$

SDZ017-020-022-023-036>040-048>070-110600-
SOUTHEAST SOUTH DAKOTA

CITY           SKY/WX    TMP DP  RH WIND       PRES   REMARKS
SIOUX FALLS    CLOUDY    13   7  77 NE12      30.21R WCI  -1
HURON          CLOUDY    16  11  80 E8        30.21S WCI   5
CHAMBERLAIN    CLOUDY    22  20  90 CALM      30.18R
MITCHELL       CLOUDY    19  13  77 NE9       30.21S WCI   8
YANKTON        CLOUDY    18  12  79 NE8       30.22R WCI   7
$$

ABBREVIATIONS USED IN REMARKS
   TC - TEMPERATURE IN CELSIUS
  WCI - WIND CHILL INDEX
   HX - HEAT INDEX
  VSB - VISIBILITY





USA.gov is the U.S. government's official web portal to all federal, state and local government web resources and services.